TimeMST,TemperatureF,Dew PointF,Humidity,Sea Level PressureIn,VisibilityMPH,Wind Direction,Wind SpeedMPH,Gust SpeedMPH,PrecipitationIn,Events,Conditions,WindDirDegrees,DateUTC
12:53 AM,15.8,12.2,86,30.07,0.2,WSW,4.6,-,N/A,Fog,Light Freezing Fog,250,2013-01-01 07:53:00
1:53 AM,12.0,8.1,84,30.19,1.0,SSW,4.6,-,N/A,,Mist,200,2013-01-01 08:53:00
2:05 AM,10.4,8.6,92,30.08,0.5,SW,4.6,-,N/A,Fog,Light Freezing Fog,220,2013-01-01 09:05:00
2:53 AM,10.0,7.0,87,30.20,0.8,West,6.9,-,N/A,,Mist,260,2013-01-01 09:53:00
2:59 AM,10.4,6.8,85,30.08,1.2,West,3.5,-,N/A,,Overcast,260,2013-01-01 09:59:00
3:16 AM,8.6,6.8,92,30.08,0.8,WSW,5.8,-,N/A,,Overcast,250,2013-01-01 10:16:00
3:53 AM,8.6,6.8,92,30.08,0.8,WSW,5.8,-,N/A,,Mist,250,2013-01-01 10:53:00
4:22 AM,8.6,6.8,92,30.07,1.0,SW,6.9,-,0.00,Snow,Light Snow,230,2013-01-01 11:22:00
4:51 AM,8.6,3.2,79,30.06,1.5,WSW,6.9,-,0.00,,Overcast,250,2013-01-01 11:51:00
4:53 AM,6.8,3.2,85,30.05,1.8,West,8.1,-,N/A,,Overcast,260,2013-01-01 11:53:00
5:06 AM,6.8,3.2,85,30.06,1.0,WSW,8.1,-,N/A,,Overcast,250,2013-01-01 12:06:00
5:12 AM,6.8,3.2,85,30.06,2.0,West,8.1,-,N/A,,Overcast,260,2013-01-01 12:12:00
5:39 AM,6.8,3.2,85,30.05,3.0,WSW,5.8,-,N/A,,Overcast,250,2013-01-01 12:39:00
5:53 AM,6.1,1.9,83,30.17,1.5,WSW,5.8,-,N/A,,Overcast,240,2013-01-01 12:53:00
6:09 AM,6.8,1.4,79,30.04,0.8,WSW,6.9,-,N/A,,Overcast,240,2013-01-01 13:09:00
6:53 AM,5.0,1.4,85,30.04,0.5,West,4.6,-,N/A,Fog,Light Freezing Fog,260,2013-01-01 13:53:00
7:15 AM,5.0,1.4,85,30.03,1.2,WSW,4.6,-,N/A,,Overcast,250,2013-01-01 14:15:00
7:53 AM,3.9,1.0,88,30.15,1.8,WSW,6.9,-,0.00,,Overcast,250,2013-01-01 14:53:00
8:00 AM,5.0,1.4,85,30.02,2.5,WSW,6.9,-,N/A,,Overcast,250,2013-01-01 15:00:00
8:09 AM,5.0,1.4,85,30.02,4.0,West,6.9,-,N/A,,Overcast,260,2013-01-01 15:09:00
8:20 AM,5.0,1.4,85,30.01,2.5,WSW,6.9,-,N/A,,Overcast,250,2013-01-01 15:20:00
8:27 AM,5.0,1.4,85,30.01,6.0,WSW,5.8,-,N/A,,Overcast,250,2013-01-01 15:27:00
8:53 AM,6.1,1.9,83,30.16,7.0,WSW,6.9,-,N/A,,Overcast,250,2013-01-01 15:53:00
9:53 AM,8.6,5.0,85,30.04,8.0,SW,9.2,-,N/A,,Overcast,230,2013-01-01 16:53:00
10:53 AM,12.9,9.0,84,30.14,7.0,WSW,9.2,-,0.00,,Overcast,240,2013-01-01 17:53:00
11:10 AM,14.0,8.6,79,30.02,1.8,SW,10.4,-,0.00,Snow,Light Snow,230,2013-01-01 18:10:00
11:31 AM,14.0,10.4,86,30.01,1.0,WSW,11.5,-,0.00,Snow,Light Snow,240,2013-01-01 18:31:00
11:45 AM,15.8,10.4,79,30.00,0.5,WSW,11.5,-,0.00,Fog-Snow,Snow,240,2013-01-01 18:45:00
11:53 AM,15.1,10.9,84,30.12,0.2,SW,10.4,-,0.00,Fog-Snow,Snow,230,2013-01-01 18:53:00
12:38 PM,15.8,10.4,79,29.99,1.2,WSW,17.3,-,0.00,Snow,Light Snow,250,2013-01-01 19:38:00
12:46 PM,15.8,12.2,86,29.99,2.0,WSW,15.0,-,0.00,Snow,Light Snow,250,2013-01-01 19:46:00
12:53 PM,16.0,12.0,84,30.10,2.5,WSW,11.5,-,0.00,Snow,Light Snow,250,2013-01-01 19:53:00
1:17 PM,17.6,12.2,79,29.99,1.0,WSW,9.2,-,0.00,Snow,Light Snow,250,2013-01-01 20:17:00
1:33 PM,19.4,15.8,86,29.99,1.5,West,12.7,-,0.00,Snow,Light Snow,260,2013-01-01 20:33:00
1:40 PM,19.4,15.8,86,29.99,3.0,West,15.0,-,0.00,Snow,Light Snow,260,2013-01-01 20:40:00
1:53 PM,19.9,16.0,85,30.10,8.0,West,13.8,-,0.00,,Overcast,270,2013-01-01 20:53:00
2:51 PM,24.8,19.4,80,30.00,10.0,West,13.8,-,N/A,,Overcast,280,2013-01-01 21:51:00
2:53 PM,24.1,19.9,84,30.12,10.0,West,13.8,-,N/A,,Overcast,280,2013-01-01 21:53:00
3:53 PM,23.0,19.0,85,30.13,10.0,WSW,11.5,-,N/A,,Scattered Clouds,250,2013-01-01 22:53:00
4:53 PM,19.9,17.1,89,30.15,10.0,WSW,11.5,-,N/A,,Clear,240,2013-01-01 23:53:00
5:53 PM,19.0,16.0,88,30.15,10.0,WSW,9.2,-,N/A,,Scattered Clouds,240,2013-01-02 00:53:00
6:53 PM,21.0,18.0,88,30.17,10.0,WSW,11.5,-,N/A,,Mostly Cloudy,250,2013-01-02 01:53:00
7:53 PM,28.0,23.0,81,30.15,10.0,West,15.0,-,N/A,,Overcast,280,2013-01-02 02:53:00
8:53 PM,28.9,21.9,75,30.15,10.0,WNW,20.7,27.6,N/A,,Overcast,290,2013-01-02 03:53:00
9:28 PM,28.4,21.2,74,30.05,10.0,WNW,18.4,28.8,N/A,,Overcast,290,2013-01-02 04:28:00
9:53 PM,28.9,21.9,75,30.16,10.0,WNW,18.4,-,N/A,,Overcast,290,2013-01-02 04:53:00
10:53 PM,28.0,21.9,78,30.16,10.0,WNW,12.7,-,N/A,,Overcast,290,2013-01-02 05:53:00
11:53 PM,28.9,21.9,75,30.17,10.0,WNW,13.8,-,N/A,,Overcast,290,2013-01-02 06:53:00